Regional Weather Roundup
Issued by NWS

Home | Current Version | Previous Version | Graphics & Text | Print | Product List | Glossary On
Versions: 1 2 3 4 5 6 7 8 9 10 11 12 13 14 15 16 17 18 19 20 21 22 23 24 25 26 27 28 29 30 31 32 33 34 35 36 37 38 39 40 41 42 43 44 45 46 47 48 49 50
906
ASUS44 KLIX 251105
RWRLA
LOUISIANA WEATHER ROUNDUP
NATIONAL WEATHER SERVICE NEW ORLEANS LA
600 AM CDT SAT OCT 25 2014

NOTE: "FAIR" INDICATES FEW OR NO CLOUDS BELOW 12,000 FEET WITH NO
      SIGNIFICANT WEATHER AND/OR OBSTRUCTIONS TO VISIBILITY.
      SKY/WX - SKY CONDITION AND SIGNIFICANT WEATHER.
      TMP - AIR TEMPERATURE.    DP   - DEWPOINT TEMPERATURE.
      RH  - RELATIVE HUMIDITY.  PRES - PRESSURE.
      HX  - HEAT INDEX.         WCI  - WIND CHILL INDEX.

*  THESE STATIONS ARE NOT NWS OR FAA STATIONS AND ARE NOT UNDER
   NWS QUALITY CONTROL.

LAZ040-048-061>063-065-066-069-251200-
SOUTHEAST LOUISIANA

CITY           SKY/WX    TMP DP  RH WIND       PRES   REMARKS
N.O. AUDUBON     N/A     59  54  84 MISG        N/A
N.O. INTL ARPT CLEAR     59  51  75 NE8       30.12R
N.O. LAKEFRONT CLEAR     65  54  67 NE10      30.12R
N.O. DOWNTOWN* FAIR      63  48  59 MISG      30.12R
SLIDELL        CLEAR     47  43  86 CALM      30.11R
BATON ROUGE    CLEAR     47  45  93 CALM      30.13R
BOOTHVILLE     CLEAR     68  58  70 N7        30.10R
BELLE CHASSE   CLEAR     49  46  90 CALM      30.11R
BOGALUSA*        N/A     44  41  89 CALM      30.13R
NEW ROADS*     FAIR      46  45  96 CALM      30.13S
GONZALES*      FAIR      49  49 100 CALM      30.13R
HAMMOND*       CLEAR     46  43  87 CALM      30.13S
HOUMA*         CLEAR     54  51  88 CALM      30.12R
PORT FOURCHON* SUNNY     64  55  72 N6        30.14R

$$

LAZ041-044-053-054-251200-
SOUTHWEST LOUISIANA

CITY           SKY/WX    TMP DP  RH WIND       PRES   REMARKS
LAKE CHARLES   CLEAR     51  49  92 CALM      30.14R
LAFAYETTE      CLEAR     50  49  96 CALM      30.13R
PATTERSON      CLEAR     54  50  87 CALM      30.15R
SALT POINT       N/A     57  50  77 VRB5      30.12R
NEW IBERIA     CLEAR     51  48  89 N3        30.14R
CHENAULT AIRPK CLEAR     52  50  93 NW3       30.15R

$$

LAZ027-028-251200-
CENTRAL LOUISIANA

CITY           SKY/WX    TMP DP  RH WIND       PRES   REMARKS
FORT POLK      CLEAR     49  48  95 CALM      30.14R
ALEXANDRIA INT PTCLDY    46  46 100 CALM      30.13R FOG
ALEXANDRIA     CLEAR     43  42  97 CALM      30.14R

$$

LAZ001-002-251200-
NORTHWEST LOUISIANA

CITY           SKY/WX    TMP DP  RH WIND       PRES   REMARKS
SHREVEPORT     CLEAR     55  52  89 W3        30.13R
BARKSDALE AFB  CLEAR     52  52  99 SE5       30.14R
DTN SHREVEPORT CLEAR     55  52  89 CALM      30.13R

$$

LAZ014-016-251200-
NORTHEAST LOUISIANA

CITY           SKY/WX    TMP DP  RH WIND       PRES   REMARKS
MONROE         CLEAR     50  48  93 CALM      30.14S
TALLULAH       CLEAR     46  43  89 CALM      30.14R

$$




USA.gov is the U.S. government's official web portal to all federal, state and local government web resources and services.